| time (UTC) | temp F | wind direction | speed MPH | gust MPH | rain 1hr in | rain 24hr in | rain mn in | humidity % | barometer mb |
| 20260906090756 | 0 | 267 | 3.0 | 5.0 | 0.00 | 0.00 | 0.00 | 1015.2 | |
| 20260906090255 | 0 | 267 | 3.0 | 5.0 | 0.00 | 0.00 | 0.00 | 1015.2 | |
| 20260906085755 | 0 | 279 | 2.0 | 3.0 | 0.00 | 0.00 | 0.00 | 1015.4 | |
| 20260906085253 | 0 | 0.0 | 0.0 | 0.00 | 0.00 | 0.00 | 1015.1 | ||
| 20260906084748 | 0 | 0.0 | 0.0 | 0.00 | 0.00 | 0.00 | 1015.1 | ||
| 20260906084242 | 0 | 0.0 | 0.0 | 0.00 | 0.00 | 0.00 | 1015.1 | ||
| 20260906083738 | 0 | 0.0 | 0.0 | 0.00 | 0.00 | 0.00 | 1015.1 | ||
| 20260906083233 | 0 | 0.0 | 0.0 | 0.00 | 0.00 | 0.00 | 1015.5 | ||
| 20260906082728 | 0 | 207 | 1.0 | 2.0 | 0.00 | 0.00 | 0.00 | 1015.4 | |
| 20260906082223 | 0 | 207 | 1.0 | 2.0 | 0.00 | 0.00 | 0.00 | 1015.4 | |
| 20260906081719 | 0 | 207 | 1.0 | 2.0 | 0.00 | 0.00 | 0.00 | 1015.4 | |
| 20260906081214 | 0 | 207 | 1.0 | 2.0 | 0.00 | 0.00 | 0.00 | 1015.4 | |
| 20260906080710 | 0 | 207 | 1.0 | 2.0 | 0.00 | 0.00 | 0.00 | 1015.4 | |
| 20260906080206 | 0 | 207 | 1.0 | 2.0 | 0.00 | 0.00 | 0.00 | 1015.4 | |
| 20260906075700 | 0 | 207 | 1.0 | 2.0 | 0.00 | 0.00 | 0.00 | 1015.8 | |
| 20260906075154 | 0 | 207 | 1.0 | 2.0 | 0.00 | 0.00 | 0.00 | 1015.8 | |
| 20260906074649 | 0 | 207 | 1.0 | 2.0 | 0.00 | 0.00 | 0.00 | 1015.8 | |
| 20260906074143 | 0 | 207 | 1.0 | 2.0 | 0.00 | 0.00 | 0.00 | 1015.8 | |
| 20260906073638 | 0 | 207 | 1.0 | 2.0 | 0.00 | 0.00 | 0.00 | 1015.9 | |
| 20260906073134 | 0 | 215 | 0.0 | 3.0 | 0.00 | 0.00 | 0.00 | 1015.9 | |
| 20260906072629 | 0 | 215 | 0.0 | 3.0 | 0.00 | 0.00 | 0.00 | 1016.0 | |
| 20260906072124 | 0 | 215 | 0.0 | 3.0 | 0.00 | 0.00 | 0.00 | 1016.2 | |
| 20260906071620 | 0 | 215 | 0.0 | 3.0 | 0.00 | 0.00 | 0.00 | 1016.2 | |
| 20260906071115 | 0 | 215 | 0.0 | 3.0 | 0.00 | 0.00 | 0.00 | 1016.2 | |
| 20260906070612 | 0 | 215 | 0.0 | 3.0 | 0.00 | 0.00 | 0.00 | 1016.2 | |
| 20260906070107 | 0 | 215 | 0.0 | 3.0 | 0.00 | 0.00 | 0.00 | 1016.2 | |
| 20260906065607 | 0 | 215 | 0.0 | 3.0 | 0.00 | 0.00 | 0.00 | 1016.0 | |
| 20260906065102 | 0 | 192 | 1.0 | 2.0 | 0.00 | 0.00 | 0.00 | 1016.3 | |
| 20260906064558 | 0 | 192 | 1.0 | 2.0 | 0.00 | 0.00 | 0.00 | 1016.3 | |
| 20260906064052 | 0 | 192 | 1.0 | 2.0 | 0.00 | 0.00 | 0.00 | 1016.3 | |
| 20260906063547 | 0 | 0.0 | 0.0 | 0.00 | 0.00 | 0.00 | 1016.3 | ||
| 20260906063043 | 0 | 0.0 | 0.0 | 0.00 | 0.00 | 0.00 | 1016.2 | ||
| 20260906062538 | 0 | 0.0 | 0.0 | 0.00 | 0.00 | 0.00 | 1016.3 | ||
| 20260906062033 | 0 | 0.0 | 0.0 | 0.00 | 0.00 | 0.00 | 1016.3 | ||
| 20260906061529 | 0 | 0.0 | 0.0 | 0.00 | 0.00 | 0.00 | 1016.3 | ||
| 20260906061028 | 0 | 0.0 | 0.0 | 0.00 | 0.00 | 0.00 | 1016.4 | ||
| 20260906060525 | 0 | 0.0 | 0.0 | 0.00 | 0.00 | 0.00 | 1016.4 | ||
| 20260906060022 | 0 | 0.0 | 0.0 | 0.00 | 0.00 | 0.00 | 1016.4 | ||
| 20260906055517 | 0 | 209 | 1.0 | 3.0 | 0.00 | 0.00 | 0.00 | 1016.5 | |
| 20260906055012 | 0 | 209 | 1.0 | 3.0 | 0.00 | 0.00 | 0.00 | 1016.4 | |
| 20260906054507 | 0 | 209 | 1.0 | 3.0 | 0.00 | 0.00 | 0.00 | 1016.4 | |
| 20260906054003 | 0 | 209 | 1.0 | 3.0 | 0.00 | 0.00 | 0.00 | 1016.3 | |
| 20260906053459 | 0 | 209 | 1.0 | 3.0 | 0.00 | 0.00 | 0.00 | 1016.4 | |
| 20260906052954 | 0 | 209 | 1.0 | 3.0 | 0.00 | 0.00 | 0.00 | 1016.4 | |
| 20260906052450 | 0 | 209 | 1.0 | 3.0 | 0.00 | 0.00 | 0.00 | 1016.4 | |
| 20260906051947 | 0 | 209 | 1.0 | 3.0 | 0.00 | 0.00 | 0.00 | 1016.4 | |
| 20260906051442 | 0 | 209 | 1.0 | 3.0 | 0.00 | 0.00 | 0.00 | 1016.4 | |
| 20260906050938 | 0 | 209 | 1.0 | 3.0 | 0.00 | 0.00 | 0.00 | 1016.4 | |
| 20260906050437 | 0 | 209 | 1.0 | 3.0 | 0.00 | 0.00 | 0.00 | 1016.4 | |
| 20260906045937 | 0 | 209 | 1.0 | 3.0 | 0.00 | 0.00 | 0.00 | 1016.0 | |
| 20260906045435 | 0 | 167 | 3.0 | 4.0 | 0.00 | 0.00 | 0.00 | 1016.0 | |
| 20260906044931 | 0 | 167 | 3.0 | 4.0 | 0.00 | 0.00 | 0.00 | 1016.0 | |
| 20260906044426 | 0 | 167 | 3.0 | 4.0 | 0.00 | 0.00 | 0.00 | 1016.0 | |
| 20260906043922 | 0 | 167 | 3.0 | 4.0 | 0.00 | 0.00 | 0.00 | 1016.0 | |
| 20260906043417 | 0 | 167 | 3.0 | 4.0 | 0.00 | 0.00 | 0.00 | 1016.0 | |
| 20260906042913 | 0 | 167 | 3.0 | 4.0 | 0.00 | 0.00 | 0.00 | 1016.0 | |
| 20260906042412 | 0 | 167 | 3.0 | 4.0 | 0.00 | 0.00 | 0.00 | 1016.0 | |
| 20260906041907 | 0 | 167 | 3.0 | 4.0 | 0.00 | 0.00 | 0.00 | 1016.0 | |
| 20260906041403 | 0 | 167 | 3.0 | 4.0 | 0.00 | 0.00 | 0.00 | 1016.0 | |
| 20260906040903 | 0 | 143 | 3.0 | 4.0 | 0.00 | 0.00 | 0.00 | 1016.0 | |
| 20260906040358 | 0 | 143 | 3.0 | 4.0 | 0.00 | 0.00 | 0.00 | 1016.0 | |
| 20260906035854 | 0 | 0.0 | 0.0 | 0.00 | 0.00 | 0.00 | 1016.2 | ||
| 20260906035349 | 0 | 0.0 | 0.0 | 0.00 | 0.00 | 0.00 | 1016.2 | ||
| 20260906034844 | 0 | 122 | 2.0 | 4.0 | 0.00 | 0.00 | 0.00 | 1016.2 | |
| 20260906034338 | 0 | 122 | 2.0 | 4.0 | 0.00 | 0.00 | 0.00 | 1016.2 | |
| 20260906033835 | 0 | 122 | 2.0 | 4.0 | 0.00 | 0.00 | 0.00 | 1016.2 | |
| 20260906033334 | 0 | 122 | 2.0 | 4.0 | 0.00 | 0.00 | 0.00 | 1016.2 | |
| 20260906032830 | 0 | 122 | 2.0 | 4.0 | 0.00 | 0.00 | 0.00 | 1016.0 | |
| 20260906032326 | 0 | 122 | 2.0 | 4.0 | 0.00 | 0.00 | 0.00 | 1016.0 | |
| 20260906031821 | 0 | 122 | 2.0 | 4.0 | 0.00 | 0.00 | 0.00 | 1016.0 | |
| 20260906031316 | 0 | 122 | 2.0 | 4.0 | 0.00 | 0.00 | 0.00 | 1016.0 | |
| 20260906030816 | 0 | 122 | 2.0 | 4.0 | 0.00 | 0.00 | 0.00 | 1015.5 | |
| 20260906030311 | 0 | 122 | 2.0 | 4.0 | 0.00 | 0.00 | 0.00 | 1015.5 | |
| 20260906025811 | 0 | 122 | 2.0 | 4.0 | 0.00 | 0.00 | 0.00 | 1015.5 | |
| 20260906025306 | 0 | 122 | 2.0 | 4.0 | 0.00 | 0.00 | 0.00 | 1015.5 | |
| 20260906024804 | 0 | 0.0 | 0.0 | 0.00 | 0.00 | 0.00 | 1015.5 | ||
| 20260906024303 | 0 | 0.0 | 0.0 | 0.00 | 0.00 | 0.00 | 1015.5 | ||
| 20260906023759 | 0 | 210 | 1.0 | 2.0 | 0.00 | 0.00 | 0.00 | 1015.3 | |
| 20260906023254 | 0 | 210 | 1.0 | 2.0 | 0.00 | 0.00 | 0.00 | 1015.3 | |
| 20260906022750 | 0 | 210 | 1.0 | 2.0 | 0.00 | 0.00 | 0.00 | 1015.3 | |
| 20260906022244 | 0 | 210 | 1.0 | 2.0 | 0.00 | 0.00 | 0.00 | 1014.8 | |
| 20260906021741 | 0 | 210 | 1.0 | 2.0 | 0.00 | 0.00 | 0.00 | 1015.0 | |
| 20260906021234 | 0 | 210 | 1.0 | 2.0 | 0.00 | 0.00 | 0.00 | 1014.9 | |
| 20260906020729 | 0 | 210 | 1.0 | 2.0 | 0.00 | 0.00 | 0.00 | 1014.7 | |
| 20260906020224 | 0 | 210 | 1.0 | 2.0 | 0.00 | 0.00 | 0.00 | 1014.7 | |
| 20260906015724 | 0 | 210 | 1.0 | 2.0 | 0.00 | 0.00 | 0.00 | 1014.3 | |
| 20260906015222 | 0 | 210 | 1.0 | 2.0 | 0.00 | 0.00 | 0.00 | 1014.3 | |
| 20260906014717 | 0 | 210 | 1.0 | 2.0 | 0.00 | 0.00 | 0.00 | 1014.3 | |
| 20260906014213 | 0 | 210 | 1.0 | 2.0 | 0.00 | 0.00 | 0.00 | 1014.1 | |
| 20260906013709 | 0 | 354 | 1.0 | 2.0 | 0.00 | 0.00 | 0.00 | 1014.3 | |
| 20260906013208 | 0 | 179 | 3.0 | 5.0 | 0.00 | 0.00 | 0.00 | 1014.2 | |
| 20260906012703 | 0 | 182 | 2.0 | 4.0 | 0.00 | 0.00 | 0.00 | 1014.1 | |
| 20260906012158 | 0 | 182 | 2.0 | 4.0 | 0.00 | 0.00 | 0.00 | 1013.9 | |
| 20260906011653 | 0 | 198 | 5.0 | 5.0 | 0.00 | 0.00 | 0.00 | 1013.9 | |
| 20260906011148 | 0 | 200 | 0.0 | 3.0 | 0.00 | 0.00 | 0.00 | 1013.9 | |
| 20260906010638 | 0 | 150 | 4.0 | 7.0 | 0.00 | 0.00 | 0.00 | 1014.0 | |
| 20260906010134 | 0 | 150 | 4.0 | 7.0 | 0.00 | 0.00 | 0.00 | 1013.9 | |
| 20260906005633 | 0 | 150 | 4.0 | 7.0 | 0.00 | 0.00 | 0.00 | 1013.8 | |
| 20260906005133 | 0 | 150 | 4.0 | 7.0 | 0.00 | 0.00 | 0.00 | 1013.9 | |
| 20260906004632 | 0 | 150 | 4.0 | 7.0 | 0.00 | 0.00 | 0.00 | 1013.9 | |
| 20260906004127 | 0 | 150 | 4.0 | 7.0 | 0.00 | 0.00 | 0.00 | 1013.5 | |
| 20260906003622 | 0 | 150 | 4.0 | 7.0 | 0.00 | 0.00 | 0.00 | 1013.8 | |
| 20260906003118 | 0 | 150 | 4.0 | 7.0 | 0.00 | 0.00 | 0.00 | 1013.8 | |
| 20260906002613 | 0 | 150 | 4.0 | 7.0 | 0.00 | 0.00 | 0.00 | 1013.6 | |
| 20260906002108 | 0 | 195 | 1.0 | 2.0 | 0.00 | 0.00 | 0.00 | 1013.7 | |
| 20260906001602 | 0 | 195 | 1.0 | 2.0 | 0.00 | 0.00 | 0.00 | 1013.8 | |
| 20260906001057 | 0 | 195 | 1.0 | 2.0 | 0.00 | 0.00 | 0.00 | 1013.6 | |
| 20260906000553 | 0 | 195 | 1.0 | 2.0 | 0.00 | 0.00 | 0.00 | 1013.5 | |
| 20260906000048 | 0 | 195 | 1.0 | 2.0 | 0.00 | 0.00 | 0.00 | 1013.7 | |
| 20260905235547 | 0 | 195 | 1.0 | 2.0 | 0.00 | 0.00 | 0.00 | 1013.6 | |
| 20260905235043 | 0 | 195 | 1.0 | 2.0 | 0.00 | 0.00 | 0.00 | 1013.7 | |
| 20260905234538 | 0 | 195 | 1.0 | 2.0 | 0.00 | 0.00 | 0.00 | 1013.2 | |
| 20260905234033 | 0 | 195 | 1.0 | 2.0 | 0.00 | 0.00 | 0.00 | 1013.3 | |
| 20260905233532 | 0 | 195 | 1.0 | 2.0 | 0.00 | 0.00 | 0.00 | 1013.5 | |
| 20260905233027 | 0 | 195 | 1.0 | 2.0 | 0.00 | 0.00 | 0.00 | 1013.3 | |
| 20260905232523 | 0 | 202 | 0.0 | 4.0 | 0.00 | 0.00 | 0.00 | 1013.3 | |
| 20260905232018 | 0 | 202 | 0.0 | 4.0 | 0.00 | 0.00 | 0.00 | 1013.3 | |
| 20260905231513 | 0 | 202 | 0.0 | 4.0 | 0.00 | 0.00 | 0.00 | 1013.3 | |
| 20260905231010 | 0 | 202 | 0.0 | 4.0 | 0.00 | 0.00 | 0.00 | 1013.5 | |
| 20260905230509 | 0 | 202 | 0.0 | 4.0 | 0.00 | 0.00 | 0.00 | 1013.2 | |
| 20260905230007 | 0 | 202 | 0.0 | 4.0 | 0.00 | 0.00 | 0.00 | 1013.5 | |
| 20260905225502 | 0 | 243 | 1.0 | 2.0 | 0.00 | 0.00 | 0.00 | 1013.3 | |
| 20260905224957 | 0 | 195 | 2.0 | 3.0 | 0.00 | 0.00 | 0.00 | 1013.5 | |
| 20260905224452 | 0 | 195 | 2.0 | 3.0 | 0.00 | 0.00 | 0.00 | 1013.2 | |
| 20260905223951 | 0 | 195 | 2.0 | 3.0 | 0.00 | 0.00 | 0.00 | 1013.3 | |
| 20260905223449 | 0 | 195 | 2.0 | 3.0 | 0.00 | 0.00 | 0.00 | 1013.5 | |
| 20260905222944 | 0 | 195 | 2.0 | 3.0 | 0.00 | 0.00 | 0.00 | 1013.3 | |
| 20260905222444 | 0 | 195 | 2.0 | 3.0 | 0.00 | 0.00 | 0.00 | 1013.5 | |
| 20260905221939 | 0 | 164 | 2.0 | 3.0 | 0.00 | 0.00 | 0.00 | 1013.5 | |
| 20260905221436 | 0 | 204 | 2.0 | 3.0 | 0.00 | 0.00 | 0.00 | 1013.5 | |
| 20260905220932 | 0 | 148 | 2.0 | 3.0 | 0.00 | 0.00 | 0.00 | 1013.6 | |
| 20260905220428 | 0 | 289 | 1.0 | 2.0 | 0.00 | 0.00 | 0.00 | 1013.7 | |
| 20260905215927 | 0 | 190 | 3.0 | 6.0 | 0.00 | 0.00 | 0.00 | 1013.6 | |
| 20260905215422 | 0 | 185 | 2.0 | 5.0 | 0.00 | 0.00 | 0.00 | 1013.5 | |
| 20260905214918 | 0 | 185 | 2.0 | 5.0 | 0.00 | 0.00 | 0.00 | 1013.6 | |
| 20260905214414 | 0 | 193 | 2.0 | 4.0 | 0.00 | 0.00 | 0.00 | 1013.6 | |
| 20260905213908 | 0 | 218 | 0.0 | 0.0 | 0.00 | 0.00 | 0.00 | 1013.7 | |
| 20260905213405 | 0 | 0.0 | 0.0 | 0.00 | 0.00 | 0.00 | 1013.6 | ||
| 20260905212900 | 0 | 0.0 | 0.0 | 0.00 | 0.00 | 0.00 | 1013.9 | ||
| 20260905212354 | 0 | 0.0 | 0.0 | 0.00 | 0.00 | 0.00 | 1013.8 | ||
| 20260905211854 | 0 | 0.0 | 0.0 | 0.00 | 0.00 | 0.00 | 1014.0 | ||
| 20260905211349 | 0 | 212 | 1.0 | 2.0 | 0.00 | 0.00 | 0.00 | 1014.0 | |
| 20260905210846 | 0 | 212 | 1.0 | 2.0 | 0.00 | 0.00 | 0.00 | 1014.0 | |
| 20260905210345 | 0 | 212 | 1.0 | 2.0 | 0.00 | 0.00 | 0.00 | 1014.2 | |
| 20260905205844 | 0 | 212 | 1.0 | 2.0 | 0.00 | 0.00 | 0.00 | 1014.2 | |
| 20260905205339 | 0 | 212 | 1.0 | 2.0 | 0.00 | 0.00 | 0.00 | 1014.4 | |
| 20260905204838 | 0 | 212 | 1.0 | 2.0 | 0.00 | 0.00 | 0.00 | 1014.5 | |
| 20260905204335 | 0 | 212 | 1.0 | 2.0 | 0.00 | 0.00 | 0.00 | 1014.7 | |
| 20260905203833 | 0 | 212 | 1.0 | 2.0 | 0.00 | 0.00 | 0.00 | 1014.7 | |
| 20260905203330 | 0 | 212 | 1.0 | 2.0 | 0.00 | 0.00 | 0.00 | 1014.7 | |
| 20260905202825 | 0 | 212 | 1.0 | 2.0 | 0.00 | 0.00 | 0.00 | 1014.7 | |
| 20260905202320 | 0 | 212 | 1.0 | 2.0 | 0.00 | 0.00 | 0.00 | 1014.8 | |
| 20260905201815 | 0 | 212 | 1.0 | 2.0 | 0.00 | 0.00 | 0.00 | 1014.8 | |
| 20260905201310 | 0 | 254 | 2.0 | 5.0 | 0.00 | 0.00 | 0.00 | 1014.9 | |
| 20260905200805 | 0 | 254 | 2.0 | 5.0 | 0.00 | 0.00 | 0.00 | 1014.7 | |
| 20260905200301 | 0 | 254 | 2.0 | 5.0 | 0.00 | 0.00 | 0.00 | 1014.9 | |
| 20260905195759 | 0 | 240 | 1.0 | 3.0 | 0.00 | 0.00 | 0.00 | 1015.1 | |
| 20260905195254 | 0 | 149 | 5.0 | 6.0 | 0.00 | 0.00 | 0.00 | 1015.3 | |
| 20260905194749 | 0 | 218 | 2.0 | 7.0 | 0.00 | 0.00 | 0.00 | 1015.4 | |
| 20260905194249 | 0 | 312 | 1.0 | 2.0 | 0.00 | 0.00 | 0.00 | 1015.3 | |
| 20260905193743 | 0 | 164 | 2.0 | 3.0 | 0.00 | 0.00 | 0.00 | 1015.4 | |
| 20260905193238 | 0 | 235 | 3.0 | 3.0 | 0.00 | 0.00 | 0.00 | 1015.3 | |
| 20260905192733 | 0 | 235 | 3.0 | 3.0 | 0.00 | 0.00 | 0.00 | 1015.6 | |
| 20260905192230 | 0 | 235 | 3.0 | 3.0 | 0.00 | 0.00 | 0.00 | 1015.7 | |
| 20260905191729 | 0 | 283 | 4.0 | 4.0 | 0.00 | 0.00 | 0.00 | 1015.8 | |
| 20260905191227 | 0 | 193 | 3.0 | 4.0 | 0.00 | 0.00 | 0.00 | 1016.0 | |
| 20260905190726 | 0 | 193 | 3.0 | 4.0 | 0.00 | 0.00 | 0.00 | 1016.3 | |
| 20260905190225 | 0 | 235 | 2.0 | 3.0 | 0.00 | 0.00 | 0.00 | 1016.1 | |
| 20260905185724 | 0 | 235 | 2.0 | 3.0 | 0.00 | 0.00 | 0.00 | 1016.4 | |
| 20260905185219 | 0 | 158 | 0.0 | 2.0 | 0.00 | 0.00 | 0.00 | 1016.2 | |
| 20260905184719 | 0 | 158 | 0.0 | 2.0 | 0.00 | 0.00 | 0.00 | 1016.4 | |
| 20260905184218 | 0 | 229 | 3.0 | 4.0 | 0.00 | 0.00 | 0.00 | 1016.5 | |
| 20260905183712 | 0 | 228 | 3.0 | 4.0 | 0.00 | 0.00 | 0.00 | 1016.6 | |
| 20260905183208 | 0 | 156 | 2.0 | 5.0 | 0.00 | 0.00 | 0.00 | 1016.7 | |
| 20260905182707 | 0 | 156 | 2.0 | 5.0 | 0.00 | 0.00 | 0.00 | 1016.9 | |
| 20260905182207 | 0 | 203 | 0.0 | 2.0 | 0.00 | 0.00 | 0.00 | 1016.8 | |
| 20260905181702 | 0 | 203 | 0.0 | 2.0 | 0.00 | 0.00 | 0.00 | 1016.9 | |
| 20260905181201 | 0 | 203 | 0.0 | 2.0 | 0.00 | 0.00 | 0.00 | 1017.0 | |
| 20260905180655 | 0 | 203 | 0.0 | 2.0 | 0.00 | 0.00 | 0.00 | 1017.1 | |
| 20260905180152 | 0 | 167 | 3.0 | 4.0 | 0.00 | 0.00 | 0.00 | 1017.0 | |
| 20260905175650 | 0 | 93 | 4.0 | 5.0 | 0.00 | 0.00 | 0.00 | 1017.4 | |
| 20260905175146 | 0 | 93 | 4.0 | 5.0 | 0.00 | 0.00 | 0.00 | 1017.3 | |
| 20260905174641 | 0 | 227 | 3.0 | 4.0 | 0.00 | 0.00 | 0.00 | 1017.6 | |
| 20260905174137 | 0 | 227 | 3.0 | 5.0 | 0.00 | 0.00 | 0.00 | 1017.6 | |
| 20260905173632 | 0 | 189 | 2.0 | 3.0 | 0.00 | 0.00 | 0.00 | 1017.6 | |
| 20260905173128 | 0 | 175 | 3.0 | 6.0 | 0.00 | 0.00 | 0.00 | 1017.6 | |
| 20260905172627 | 0 | 198 | 2.0 | 5.0 | 0.00 | 0.00 | 0.00 | 1018.0 | |
| 20260905172122 | 0 | 254 | 1.0 | 4.0 | 0.00 | 0.00 | 0.00 | 1018.1 | |
| 20260905171618 | 0 | 138 | 4.0 | 5.0 | 0.00 | 0.00 | 0.00 | 1017.9 | |
| 20260905171114 | 0 | 155 | 3.0 | 4.0 | 0.00 | 0.00 | 0.00 | 1018.0 | |
| 20260905170610 | 0 | 213 | 1.0 | 4.0 | 0.00 | 0.00 | 0.00 | 1018.0 | |
| 20260905170105 | 0 | 271 | 1.0 | 4.0 | 0.00 | 0.00 | 0.00 | 1018.1 | |
| 20260905165600 | 0 | 329 | 1.0 | 3.0 | 0.00 | 0.00 | 0.00 | 1018.2 | |
| 20260905165055 | 0 | 220 | 2.0 | 3.0 | 0.00 | 0.00 | 0.00 | 1018.2 | |
| 20260905164549 | 0 | 236 | 0.0 | 5.0 | 0.00 | 0.00 | 0.00 | 1018.4 | |
| 20260905164044 | 0 | 235 | 0.0 | 1.0 | 0.00 | 0.00 | 0.00 | 1018.5 | |
| 20260905163541 | 0 | 214 | 3.0 | 5.0 | 0.00 | 0.00 | 0.00 | 1018.3 | |
| 20260905163036 | 0 | 224 | 0.0 | 2.0 | 0.00 | 0.00 | 0.00 | 1018.5 | |
| 20260905162533 | 0 | 227 | 3.0 | 8.0 | 0.00 | 0.00 | 0.00 | 1018.4 | |
| 20260905162027 | 0 | 210 | 1.0 | 2.0 | 0.00 | 0.00 | 0.00 | 1018.3 | |
| 20260905161526 | 0 | 142 | 0.0 | 2.0 | 0.00 | 0.00 | 0.00 | 1018.4 | |
| 20260905161024 | 0 | 297 | 0.0 | 2.0 | 0.00 | 0.00 | 0.00 | 1018.4 | |
| 20260905160518 | 0 | 265 | 1.0 | 5.0 | 0.00 | 0.00 | 0.00 | 1018.1 | |
| 20260905160018 | 0 | 222 | 2.0 | 2.0 | 0.00 | 0.00 | 0.00 | 1018.4 | |
| 20260905155517 | 0 | 230 | 2.0 | 4.0 | 0.00 | 0.00 | 0.00 | 1018.4 | |
| 20260905155016 | 0 | 229 | 2.0 | 4.0 | 0.00 | 0.00 | 0.00 | 1018.2 | |
| 20260905154511 | 0 | 24 | 2.0 | 4.0 | 0.00 | 0.00 | 0.00 | 1018.4 | |
| 20260905154007 | 0 | 229 | 0.0 | 4.0 | 0.00 | 0.00 | 0.00 | 1018.3 | |
| 20260905153503 | 0 | 212 | 2.0 | 5.0 | 0.00 | 0.00 | 0.00 | 1018.3 | |
| 20260905153002 | 0 | 212 | 0.0 | 3.0 | 0.00 | 0.00 | 0.00 | 1018.2 | |
| 20260905152502 | 0 | 304 | 1.0 | 4.0 | 0.00 | 0.00 | 0.00 | 1018.6 | |
| 20260905151957 | 0 | 234 | 3.0 | 4.0 | 0.00 | 0.00 | 0.00 | 1018.2 | |
| 20260905151452 | 0 | 254 | 2.0 | 3.0 | 0.00 | 0.00 | 0.00 | 1018.4 | |
| 20260905150947 | 0 | 241 | 1.0 | 3.0 | 0.00 | 0.00 | 0.00 | 1018.3 | |
| 20260905150442 | 0 | 282 | 2.0 | 4.0 | 0.00 | 0.00 | 0.00 | 1018.3 | |
| 20260905145938 | 0 | 253 | 2.0 | 3.0 | 0.00 | 0.00 | 0.00 | 1018.4 | |
| 20260905145433 | 0 | 239 | 2.0 | 3.0 | 0.00 | 0.00 | 0.00 | 1018.3 | |
| 20260905144933 | 0 | 255 | 2.0 | 2.0 | 0.00 | 0.00 | 0.00 | 1018.2 | |
| 20260905144428 | 0 | 255 | 2.0 | 2.0 | 0.00 | 0.00 | 0.00 | 1018.4 | |
| 20260905143927 | 0 | 282 | 2.0 | 5.0 | 0.00 | 0.00 | 0.00 | 1018.5 | |
| 20260905143421 | 0 | 282 | 2.0 | 5.0 | 0.00 | 0.00 | 0.00 | 1018.6 | |
| 20260905142921 | 0 | 282 | 2.0 | 5.0 | 0.00 | 0.00 | 0.00 | 1018.6 | |
| 20260905142420 | 0 | 230 | 1.0 | 1.0 | 0.00 | 0.00 | 0.00 | 1018.6 | |
| 20260905141916 | 0 | 230 | 1.0 | 1.0 | 0.00 | 0.00 | 0.00 | 1018.6 | |
| 20260905141411 | 0 | 230 | 1.0 | 1.0 | 0.00 | 0.00 | 0.00 | 1018.4 | |
| 20260905140906 | 0 | 230 | 1.0 | 1.0 | 0.00 | 0.00 | 0.00 | 1018.4 | |
| 20260905140401 | 0 | 230 | 1.0 | 1.0 | 0.00 | 0.00 | 0.00 | 1018.3 | |
| 20260905135900 | 0 | 201 | 1.0 | 3.0 | 0.00 | 0.00 | 0.00 | 1018.3 | |
| 20260905135356 | 0 | 195 | 0.0 | 4.0 | 0.00 | 0.00 | 0.00 | 1018.4 | |
| 20260905134851 | 0 | 215 | 2.0 | 3.0 | 0.00 | 0.00 | 0.00 | 1018.5 | |
| 20260905134350 | 0 | 229 | 2.0 | 3.0 | 0.00 | 0.00 | 0.00 | 1018.2 | |
| 20260905133845 | 0 | 167 | 2.0 | 2.0 | 0.00 | 0.00 | 0.00 | 1018.3 | |
| 20260905133340 | 0 | 167 | 2.0 | 2.0 | 0.00 | 0.00 | 0.00 | 1018.1 | |
| 20260905132839 | 0 | 167 | 2.0 | 2.0 | 0.00 | 0.00 | 0.00 | 1018.3 | |
| 20260905132335 | 0 | 164 | 0.0 | 1.0 | 0.00 | 0.00 | 0.00 | 1018.2 | |
| 20260905131834 | 0 | 221 | 0.0 | 1.0 | 0.00 | 0.00 | 0.00 | 1018.1 | |
| 20260905131330 | 0 | 219 | 0.0 | 0.0 | 0.00 | 0.00 | 0.00 | 1017.9 | |
| 20260905130825 | 0 | 216 | 1.0 | 2.0 | 0.00 | 0.00 | 0.00 | 1017.8 | |
| 20260905130324 | 0 | 202 | 0.0 | 0.0 | 0.00 | 0.00 | 0.00 | 1017.8 | |
| 20260905125820 | 0 | 202 | 0.0 | 0.0 | 0.00 | 0.00 | 0.00 | 1017.8 | |
| 20260905125314 | 0 | 217 | 0.0 | 0.0 | 0.00 | 0.00 | 0.00 | 1017.6 | |
| 20260905124811 | 0 | 217 | 0.0 | 0.0 | 0.00 | 0.00 | 0.00 | 1017.8 | |
| 20260905124307 | 0 | 217 | 0.0 | 1.0 | 0.00 | 0.00 | 0.00 | 1017.5 | |
| 20260905123801 | 0 | 217 | 0.0 | 1.0 | 0.00 | 0.00 | 0.00 | 1017.5 | |
| 20260905123259 | 0 | 217 | 0.0 | 1.0 | 0.00 | 0.00 | 0.00 | 1017.4 | |
| 20260905122758 | 0 | 205 | 0.0 | 1.0 | 0.00 | 0.00 | 0.00 | 1017.5 | |
| 20260905122257 | 0 | 117 | 0.0 | 0.0 | 0.00 | 0.00 | 0.00 | 1017.4 | |
| 20260905121753 | 0 | 217 | 0.0 | 1.0 | 0.00 | 0.00 | 0.00 | 1017.4 | |
| 20260905121249 | 0 | 242 | 0.0 | 0.0 | 0.00 | 0.00 | 0.00 | 1017.3 | |
| 20260905120748 | 0 | 124 | 0.0 | 0.0 | 0.00 | 0.00 | 0.00 | 1017.1 | |
| 20260905120242 | 0 | 205 | 0.0 | 1.0 | 0.00 | 0.00 | 0.00 | 1017.2 | |
| 20260905115737 | 0 | 154 | 0.0 | 0.0 | 0.00 | 0.00 | 0.00 | 1016.9 | |
| 20260905115237 | 0 | 176 | 0.0 | 1.0 | 0.00 | 0.00 | 0.00 | 1017.0 | |
| 20260905114731 | 0 | 217 | 0.0 | 0.0 | 0.00 | 0.00 | 0.00 | 1017.1 | |
| 20260905114230 | 0 | 217 | 0.0 | 0.0 | 0.00 | 0.00 | 0.00 | 1017.0 | |
| 20260905113730 | 0 | 195 | 0.0 | 0.0 | 0.00 | 0.00 | 0.00 | 1017.2 | |
| 20260905113226 | 0 | 217 | 0.0 | 0.0 | 0.00 | 0.00 | 0.00 | 1016.9 | |
| 20260905112725 | 0 | 179 | 0.0 | 1.0 | 0.00 | 0.00 | 0.00 | 1017.0 | |
| 20260905112221 | 0 | 179 | 0.0 | 1.0 | 0.00 | 0.00 | 0.00 | 1017.1 | |
| 20260905111721 | 0 | 154 | 0.0 | 0.0 | 0.00 | 0.00 | 0.00 | 1016.9 | |
| 20260905111215 | 0 | 195 | 0.0 | 0.0 | 0.00 | 0.00 | 0.00 | 1016.8 | |
| 20260905110715 | 0 | 309 | 0.0 | 0.0 | 0.00 | 0.00 | 0.00 | 1016.8 | |
| 20260905110209 | 0 | 297 | 0.0 | 1.0 | 0.00 | 0.00 | 0.00 | 1016.8 | |
| 20260905105705 | 0 | 343 | 0.0 | 1.0 | 0.00 | 0.00 | 0.00 | 1016.8 | |
| 20260905105203 | 0 | 230 | 0.0 | 0.0 | 0.00 | 0.00 | 0.00 | 1016.6 | |
| 20260905104658 | 0 | 195 | 0.0 | 1.0 | 0.00 | 0.00 | 0.00 | 1016.8 | |
| 20260905104154 | 0 | 164 | 0.0 | 1.0 | 0.00 | 0.00 | 0.00 | 1016.8 | |
| 20260905103649 | 0 | 205 | 0.0 | 0.0 | 0.00 | 0.00 | 0.00 | 1016.8 | |
| 20260905103145 | 0 | 205 | 0.0 | 0.0 | 0.00 | 0.00 | 0.00 | 1016.8 | |
| 20260905102641 | 0 | 205 | 0.0 | 0.0 | 0.00 | 0.00 | 0.00 | 1016.8 | |
| 20260905102137 | 0 | 205 | 0.0 | 0.0 | 0.00 | 0.00 | 0.00 | 1016.6 | |
| 20260905101635 | 0 | 336 | 0.0 | 0.0 | 0.00 | 0.00 | 0.00 | 1016.8 | |
| 20260905101134 | 0 | 336 | 0.0 | 0.0 | 0.00 | 0.00 | 0.00 | 1016.7 | |
| 20260905100630 | 0 | 336 | 0.0 | 0.0 | 0.00 | 0.00 | 0.00 | 1016.8 | |
| 20260905100125 | 0 | 336 | 0.0 | 0.0 | 0.00 | 0.00 | 0.00 | 1016.8 | |
| 20260905095619 | 0 | 255 | 0.0 | 0.0 | 0.00 | 0.00 | 0.00 | 1016.8 | |
| 20260905095114 | 0 | 255 | 0.0 | 0.0 | 0.00 | 0.00 | 0.00 | 1016.7 | |
| 20260905094610 | 0 | 315 | 0.0 | 0.0 | 0.00 | 0.00 | 0.00 | 1016.6 | |
| 20260905094108 | 0 | 315 | 0.0 | 0.0 | 0.00 | 0.00 | 0.00 | 1016.8 | |
| 20260905093603 | 0 | 309 | 0.0 | 0.0 | 0.00 | 0.00 | 0.00 | 1016.5 | |
| 20260905093100 | 0 | 309 | 0.0 | 0.0 | 0.00 | 0.00 | 0.00 | 1016.5 | |
| 20260905092559 | 0 | 221 | 0.0 | 1.0 | 0.00 | 0.00 | 0.00 | 1016.5 | |
| 20260905092055 | 0 | 247 | 0.0 | 2.0 | 0.00 | 0.00 | 0.00 | 1016.7 | |
| 20260905091554 | 0 | 195 | 0.0 | 1.0 | 0.00 | 0.00 | 0.00 | 1016.6 |